Flag for U.S.A. Weather past 2 weeks in Compton, California, U.S.A.

Now
63 °F

Light rain. Overcast.


Feels Like: 63 °F
Forecast: 58 / 70 °F
Wind: No wind

Location: Hawthorne Municipal Airport

Current Time: Jan 30, 2015 at 5:36:16 AM

Latest Report: Jan 30, 2015 at 4:53 AM


Visibility: 10 mi

Pressure: 29.91 "Hg

Humidity: 68%

Dew point: 52 °F

Location of ComptonLocation

Historic Weather in Compton — Graph

°F

Compton temperature yesterday

Maximum temperature yesterday: 76 °F (at 12:53 PM)
Minimum temperature yesterday: 63 °F (at 12:53 AM)
Average temperature yesterday: 67 °F

Past Weeks' High & Low Weather Summary

 TemperatureHumidityPressure
High83 °F (Jan 25, 12:53 PM)100% (Jan 20, 4:53 AM)30.27 "Hg (Jan 20, 4:53 AM)
Low50 °F (Jan 22, 4:53 AM)8% (Jan 22, 12:53 PM)29.93 "Hg (Jan 30, 3:53 AM)
Average63 °F55%30.10 "Hg
* Reported Jan 15 3:53 AM — Jan 30 3:53 AM, Compton, Weather by CustomWeather, © 2014

Note: Actual official high and low records may vary slightly from our data, if they occured in-between our weather recording intervals... More about our weather records

Advertising

Compton weather history for previous 24 hours

 ConditionsComfort  
Time TempWeatherWind HumidityBarometerVisibility
3:53 AM
Jan 30
64 °FLight rain. Overcast.No wind61%29.93 "Hg10 mi
2:53 AM63 °FPassing clouds.No wind65%29.94 "Hg10 mi
1:53 AM64 °FOvercast.No wind63%29.97 "Hg10 mi
12:53 AM64 °FOvercast.No wind65%29.98 "Hg10 mi
11:53 PM
Jan 29
65 °FOvercast.No wind59%30.01 "Hg10 mi
10:53 PM66 °FOvercast.No wind54%30.02 "Hg10 mi
9:53 PM66 °FMostly cloudy.3 mph56%30.02 "Hg10 mi
8:53 PM67 °FPassing clouds.No wind55%30.03 "Hg10 mi
7:53 PM67 °FMostly cloudy.No wind55%30.03 "Hg10 mi
6:53 PM66 °FClear.6 mph56%30.02 "Hg10 mi
5:53 PM66 °FClear.6 mph59%30.00 "Hg10 mi
4:53 PM69 °FSunny.6 mph45%29.99 "Hg10 mi
3:53 PM69 °FSunny.3 mph45%29.98 "Hg10 mi
2:53 PM72 °FSunny.8 mph41%29.98 "Hg10 mi
1:53 PM75 °FSunny.7 mph32%29.98 "Hg10 mi
12:53 PM76 °FSunny.5 mph29%29.99 "Hg10 mi
11:53 AM74 °FSunny.No wind32%30.02 "Hg10 mi
10:53 AM72 °FSunny.No wind37%30.05 "Hg10 mi
9:53 AM69 °FSunny.No wind41%30.07 "Hg10 mi
8:53 AM67 °FSunny.No wind44%30.05 "Hg10 mi
7:53 AM65 °FSunny.No wind47%30.03 "Hg10 mi
6:53 AM64 °FSunny.No wind50%30.03 "Hg10 mi
5:53 AM63 °FClear.No wind54%30.02 "Hg10 mi
Weather by CustomWeather, © 2014

See weather overviewHow to use our weather pages